Location: Burzi?i
(45.0869°N, 16.0577°E)
Time: 11:50:58
(UTC+00:00)

YAOGAN 6 - Pass Details

Date: 29 October 2020
Orbit: 465 x 504 km, 97.0° (Epoch: 28 November)

Event Time Altitude Azimuth Distance (km) Brightness Sun altitude
Rises 16:08:47 0° 168° (SSE) 2,568 6.3 -4.4°
Reaches altitude 10° 16:10:50 10° 169° (S) 1,695 5.4 -4.8°
Maximum altitude 16:14:30 83° 258° (WSW) 511 2.8 -5.4°
Drops below altitude 10° 16:18:13 10° 347° (NNW) 1,724 5.4 -6.0°
Sets 16:20:20 0° 348° (NNW) 2,615 6.3 -6.4°
